{"data":{"norad_id":60300,"epoch":"2026-05-24T23:55:22.977408Z","epoch_age_seconds":78521,"freshness":"FRESH","line1":"1 60300U 24132Y   26144.99679372  .00000858  00000+0  41122-4 0  9994","line2":"2 60300  53.1606  57.9680 0001116  90.9960 269.1168 15.30184146103245","mean_motion":15.30184146,"eccentricity":0.0001116,"inclination_deg":53.1606,"raan_deg":57.968,"arg_perigee_deg":90.996,"mean_anomaly_deg":269.1168,"bstar":4.1122e-5,"rev_number":10324,"period_min":94.106320717298,"perigee_km":474.49756764051,"apogee_km":476.02724638816,"semimajor_km":6853.3994070143,"source":"CELESTRAK","updated_at":"2026-05-25T13:38:19.226796Z"}}